Emerado, ND

2:29 AM CST on January 20, 2017 (GMT -0600)
Grand Forks International

Weather History for KGFK - July, 2013

Change the Weather History Date:

Wednesday, July 3, 2013

  Actual Average Record
Temperature  
Mean Temperature 75 °F 68 °F  
Max Temperature 89 °F 80 °F 93 °F (1959)
Min Temperature 60 °F 56 °F 30 °F (1972)
Degree Days  
Heating Degree Days 0 1  
Month to date heating degree days 0 4  
Since 1 June heating degree days 77 107  
Since 1 July heating degree days 0 4  
Cooling Degree Days 10 4  
Month to date cooling degree days 26 12  
Year to date cooling degree days 148 104  
Since 1 June cooling degree days 139 87  
Growing Degree Days 25 (Base 50)    
Moisture  
Dew Point 57 °F    
Average Humidity 57    
Maximum Humidity 84    
Minimum Humidity 29    
Precipitation  
Precipitation 0.00 in 0.12 in 0.89 in (1948)
Month to date precipitation 0.00 0.36  
Year to date precipitation 11.27 9.56  
Snow  
Snow 0.00 in 0.00 in - ()
Month to date snowfall 0.0 0.0  
Since 1 June snowfall 0.0 0.0  
Since 1 July snowfall 0.0 0.0  
Snow Depth 0.00 in    
Sea Level Pressure  
Sea Level Pressure 29.90 in    
Wind  
Wind Speed 7 mph (South)    
Max Wind Speed 15 mph    
Max Gust Speed 18 mph    
Visibility 10 miles    
Events      
T = Trace of Precipitation, MM = Missing Value Source: NWS Daily Summary

Daily Weather History Graph

Daily Weather History Graph

Search for Another Location

Airport or City:

Trip Planner

Search our weather history database for the weather conditions in past years. The results will help you decide how hot, cold, wet, or windy it might be!

Date:

Astronomy

Jul. 03, 2013 Rise Set
Actual Time 5:34 AM CDT 9:30 PM CDT
Civil Twilight 4:54 AM CDT 10:11 PM CDT
Nautical Twilight 3:58 AM CDT 11:07 PM CDT
Astronomical Twilight 2:29 AM CDT 12:34 AM CDT
Moon 2:23 AM CDT (7/3) 5:34 PM CDT (7/3)
Length of Visible Light 17h 17m
Length of Day
15h 55m
Waning Crescent, 18% of the Moon is Illuminated
Jul 3
Waning Crescent
Jul 8
New
Jul 15
First Quarter
Jul 22
Full
Jul 29
Last Quarter

Hourly Weather History & Observations

Time (CDT) Temp. Heat Index Dew Point Humidity Pressure Visibility Wind Dir Wind Speed Gust Speed Precip Events Conditions
12:53 AM 64.0 °F - 57.9 °F 80% 29.98 in 10.0 mi SSW 4.6 mph - N/A   Clear
1:53 AM 64.0 °F - 57.9 °F 80% 29.97 in 10.0 mi South 6.9 mph - N/A   Clear
2:53 AM 64.0 °F - 57.9 °F 80% 29.97 in 10.0 mi SSW 4.6 mph - N/A   Overcast
3:53 AM 64.0 °F - 57.9 °F 80% 29.96 in 10.0 mi SW 3.5 mph - N/A   Mostly Cloudy
4:53 AM 63.0 °F - 57.0 °F 81% 29.96 in 10.0 mi Calm Calm - N/A   Clear
5:53 AM 62.1 °F - 57.0 °F 84% 29.95 in 10.0 mi Calm Calm - N/A   Partly Cloudy
6:53 AM 63.0 °F - 57.9 °F 84% 29.96 in 10.0 mi Calm Calm - N/A   Partly Cloudy
7:53 AM 69.1 °F - 59.0 °F 70% 29.96 in 10.0 mi SSE 3.5 mph - N/A   Partly Cloudy
8:53 AM 73.9 °F - 60.1 °F 62% 29.95 in 10.0 mi SSE 4.6 mph - N/A   Clear
9:53 AM 79.0 °F - 61.0 °F 54% 29.94 in 10.0 mi SSW 8.1 mph - N/A   Clear
10:53 AM 82.9 °F 83.7 °F 62.1 °F 49% 29.93 in 10.0 mi SSW 5.8 mph - N/A   Clear
11:53 AM 86.0 °F 84.7 °F 55.9 °F 36% 29.91 in 10.0 mi South 8.1 mph - N/A   Partly Cloudy
12:53 PM 87.1 °F - 52.0 °F 30% 29.90 in 10.0 mi South 10.4 mph - N/A   Scattered Clouds
1:53 PM 88.0 °F 85.9 °F 54.0 °F 31% 29.89 in 10.0 mi South 13.8 mph - N/A   Scattered Clouds
2:53 PM 88.0 °F 86.1 °F 55.0 °F 32% 29.89 in 10.0 mi SSW 9.2 mph - N/A   Mostly Cloudy
3:53 PM 86.0 °F 84.5 °F 55.0 °F 35% 29.87 in 10.0 mi SSE 5.8 mph - N/A   Mostly Cloudy
4:53 PM 88.0 °F 86.5 °F 55.9 °F 34% 29.86 in 10.0 mi SSW 10.4 mph - N/A   Mostly Cloudy
5:53 PM 87.1 °F 85.1 °F 54.0 °F 32% 29.83 in 10.0 mi South 12.7 mph - N/A   Scattered Clouds
6:53 PM 84.9 °F 83.9 °F 57.0 °F 38% 29.82 in 10.0 mi South 5.8 mph - N/A   Scattered Clouds
7:53 PM 82.0 °F 82.4 °F 60.1 °F 47% 29.81 in 10.0 mi South 5.8 mph - N/A   Partly Cloudy
8:53 PM 79.0 °F - 59.0 °F 50% 29.80 in 10.0 mi SSE 6.9 mph - N/A   Partly Cloudy
9:53 PM 75.0 °F - 57.9 °F 55% 29.80 in 10.0 mi SSE 6.9 mph - N/A   Partly Cloudy
10:53 PM 72.0 °F - 57.0 °F 59% 29.79 in 10.0 mi SSE 8.1 mph - N/A   Clear
11:53 PM 72.0 °F - 57.0 °F 59% 29.79 in 10.0 mi SSE 8.1 mph - N/A   Clear